Location: Aldenham
(51.6667°N, 0.3500°W)
Time: 01:51:35
(UTC+00:00)

Altair - Pass Details

Date: 23 February 2026
Orbit: 1502 x 1682 km, 47.2° (Epoch: 13 March)

Event Time Altitude Azimuth Distance (km) Brightness Sun altitude
Rises 00:54:54 0° 172° (S) 4,625 - -47.4°
Reaches altitude 10° 01:00:33 10° 144° (SE) 3,647 - -47.2°
Maximum altitude 01:03:36 12° 124° (SE) 3,492 - -47.0°
Drops below altitude 10° 01:06:40 10° 104° (ESE) 3,665 - -46.9°
Exits shadow 01:07:32 - 99° (E) 3,772 9.6 -46.9°
Sets 01:12:20 0° 77° (ENE) 4,676 10.4 -46.6°
